Regional Weather Roundup
Issued by NWS

Home | Current Version | Previous Version | Text Only | Print | Product List | Glossary On
Versions: 1 2 3 4 5 6 7 8 9 10 11 12 13 14 15 16 17 18 19 20 21 22 23 24 25 26 27 28 29 30 31 32 33 34 35 36 37 38 39 40 41 42 43 44 45 46 47 48 49 50
000
ASUS43 KDMX 182306
RWRIA

WEATHER ROUNDUP FOR IOWA
NATIONAL WEATHER SERVICE DES MOINES IA
600 PM CDT FRI AUG 18 2017

NOTE: "FAIR" INDICATES FEW OR NO CLOUDS BELOW 12,000 FEET WITH NO
SIGNIFICANT WEATHER AND/OR OBSTRUCTIONS TO VISIBILITY.

* - THESE STATIONS ARE NOT NWS STATIONS...THUS NOT UNDER NWS
QUALITY CONTROL.  THEY ALSO DO NOT REPORT WEATHER SUCH
AS PRECIPITATION OR FOG.

IAZ001>003-012>014-020>022-031>034-043>046-190000-
   NORTHWEST IOWA

CITY           SKY/WX    TMP DP  RH WIND       PRES   REMARKS
CARROLL *      SUNNY     81  66  61 CALM      29.89S HX  83
CHEROKEE *     SUNNY     79  65  61 SW6       29.89S HX  81
DENISON *      SUNNY     81  66  61 W5        29.90F HX  83
LE MARS *      MOSUNNY   81  66  61 CALM      29.88S HX  83
ORANGE CITY *  SUNNY     81  68  65 S3        29.89F HX  83
SHELDON *      MOSUNNY   77  64  65 S6        29.88S
SIOUX CITY     SUNNY     83  68  60 W5        29.88S HX  86
SPENCER        SUNNY     78  61  55 S7        29.89F HX  80
STORM LAKE *   SUNNY     77  64  65 CALM      29.91R
$$

IAZ055>058-069>071-079>083-090>094-190000-
   SOUTHWEST IOWA

CITY           SKY/WX    TMP DP  RH WIND       PRES   REMARKS
ATLANTIC *     SUNNY     82  66  57 NW5       29.89S HX  85
AUDUBON *      SUNNY     82  66  57 SW6       29.91R HX  85
CLARINDA *     SUNNY     84  66  54 W6        29.92S HX  86
COUNCIL BLFS * SUNNY     84  64  51 VRB5      29.89S HX  86
CRESTON *      SUNNY     84  61  45 W8        29.91S HX  84
HARLAN  *      SUNNY     81  64  57 W7        29.93R HX  82
LAMONI         PTSUNNY   85  64  49 W8        29.89S HX  86
RED OAK *      SUNNY     84  66  54 SW8       29.89S HX  86
SHENANDOAH *   SUNNY     84  66  54 MISG      29.90S HX  86
$$

IAZ047>049-059>061-072>074-084-190000-
   CENTRAL IOWA

CITY           SKY/WX    TMP DP  RH WIND       PRES   REMARKS
AMES           CLOUDY    82  66  58 VRB5      29.89R HX  84
ANKENY *       SUNNY     82  63  51 N9        29.88S HX  83
BOONE *        SUNNY     81  63  54 NE6       29.89R HX  82
CHARITON *     MOSUNNY   86  63  45 SW7       29.87S HX  87
DES MOINES     MOSUNNY   87  61  41 NW7       29.86S HX  87
GRINNELL*      MOSUNNY   78  67  68 CALM      29.90S HX  80
KNOXVILLE *    MOSUNNY   86  63  45 N12       29.85S HX  87
MARSHALLTOWN   SUNNY     79  64  60 NE5       29.89S HX  81
NEWTON *       SUNNY     81  68  65 N8        29.88S HX  83
PELLA *        MOSUNNY   85  66  51 N6        29.88R HX  87
PERRY *          N/A     83  60  45 CALM      29.88S HX  83
$$

IAZ004>006-015-016-023>025-035-036-190000-
   NORTH CENTRAL IOWA

CITY           SKY/WX    TMP DP  RH WIND       PRES   REMARKS
ALGONA *       SUNNY     75  61  60 CALM      29.90S
CLARION *      SUNNY     77  63  61 N5        29.90F
ESTHERVILLE    MOSUNNY   75  63  66 SE7       29.89S
FORT DODGE *   SUNNY     79  61  53 SE3       29.91S HX  80
MASON CITY     SUNNY     71  60  68 E6        29.93S
FOREST CITY *    N/A     72  63  73 E6        29.91F
WEBSTER CITY * SUNNY     79  61  53 CALM      29.88S HX  80
IOWA FALLS *     N/A     78  61  54 CALM      29.92R HX  80
$$

IAZ007>011-017>019-026>030-037>042-050>054-066-190000-
   NORTHEAST IOWA

CITY           SKY/WX    TMP DP  RH WIND       PRES   REMARKS
CEDAR RAPIDS   SUNNY     79  62  56 NW5       29.88S HX  80
CHARLES CITY * SUNNY     72  59  64 NE6       29.93S
CLINTON *      PTSUNNY   76  66  71 NW7       29.89S
DECORAH *      CLOUDY    68  63  83 NW5       29.91F
DUBUQUE        CLOUDY    73  61  65 NW7       29.91R
MONTICELLO *   CLOUDY    75  61  60 N5        29.89S
OELWEIN *      MOSUNNY   72  61  68 N5        29.92R
WATERLOO       SUNNY     76  59  55 N8        29.89S
$$

IAZ064-065-067-068-078-190000-
   EAST CENTRAL IOWA

CITY           SKY/WX    TMP DP  RH WIND       PRES   REMARKS
DAVENPORT      SUNNY     79  63  57 N6        29.90S HX  80
IOWA CITY      SUNNY     82  66  58 N9        29.89S HX  84
MT. PLEASANT * MOSUNNY   83  65  54 SW5       29.85S HX  85
MUSCATINE *    SUNNY     82  66  57 N5        29.86F HX  85
QUAD CITIES    MOSUNNY   83  63  50 NW7       29.86F HX  84
$$

IAZ062-063-075>077-085>089-095>099-190000-
   SOUTHEAST IOWA

CITY           SKY/WX    TMP DP  RH WIND       PRES   REMARKS
BURLINGTON     MOSUNNY   84  69  60 S7        29.85F HX  88
FAIRFIELD *    MOSUNNY   82  66  57 N6        29.85S HX  85
FORT MADISON * SUNNY     84  72  65 CALM      29.86F HX  89
KEOKUK *       CLOUDY    84  66  54 S8G15     29.85R HX  86
OSKALOOSA *      N/A     81  65  58 N5        29.87R HX  83
CENTERVILLE *    N/A     81  70  69 CALM      29.89R HX  84
OTTUMWA        CLOUDY    85  64  49 NE10      29.86R HX  86
WASHINGTON *   SUNNY     79  70  73 N7        29.87S HX  81
$$

ABBREVIATIONS USED IN REMARKS
   TC - TEMPERATURES IN CELSIUS
  WCI - WIND CHILL INDEX
   HX - HEAT INDEX
  VSB - VISIBILITY
$$





USA.gov is the U.S. government's official web portal to all federal, state and local government web resources and services.